Tracking 28794 objects as of 19-Apr-2024
HD Live streaming from Space Station
objects crossing your sky now

COSMOS 1305

Track COSMOS 1305 now!
10-day predictions
COSMOS 1305 is classified as:


NORAD ID: 12818
Int'l Code: 1981-088A
Perigee: 617.0 km
Apogee: 13,882.6 km
Inclination: 62.8 °
Period: 263.7 minutes
Semi major axis: 13620 km
RCS: 12.474 m2 (large)
Launch date: September 11, 1981
Source: Commonwealth of Independent States (former USSR) (CIS)
Launch site: PLESETSK MISSILE AND SPACE COMPLEX (PKMTR)
Your satellite tracking list
Your tracking list is empty




NASA's NSSDC Master Catalog

Two Line Element Set (TLE):
1 12818U 81088A   24110.25614902  .00000050  00000-0  18788-3 0  9992
2 12818  62.8412  67.7792 4869588 249.5012  53.0828  5.46133173849666
Source of the keplerian elements: AFSPC